GW2723 Weather Reports


time (UTC)temp
F
wind
direction
speed
knots
gust
knots
rain 1hr
in
rain 24hr
in
rain mn
in
humidity
%
barometer
mb
20260502224024 72 319 1.7 7.0 0.00 0.00 0.00 36 1017.1
20260502223526 72 278 1.7 4.3 0.00 0.00 0.00 39 1017.0
20260502223038 72 337 0.0 5.2 0.00 0.00 0.00 41 1017.1
20260502222524 72 18 1.7 6.1 0.00 0.00 0.00 38 1017.1
20260502222024 71 23 2.6 6.1 0.00 0.00 0.00 39 1017.1
20260502221537 71 323 1.7 5.2 0.00 0.00 0.00 38 1017.0
20260502221024 71 21 0.9 6.1 0.00 0.00 0.00 38 1017.1
20260502220524 71 313 1.7 6.1 0.00 0.00 0.00 39 1017.1
20260502220041 73 23 1.7 6.1 0.00 0.00 0.00 40 1017.1
20260502215525 73 36 1.7 6.1 0.00 0.00 0.00 33 1017.0
20260502215023 72 333 2.6 10.4 0.00 0.00 0.00 35 1017.0
20260502214541 72 38 1.7 10.4 0.00 0.00 0.00 37 1017.0
20260502214026 72 341 3.5 10.4 0.00 0.00 0.00 38 1017.1
20260502213524 72 346 1.7 6.1 0.00 0.00 0.00 37 1017.1
20260502213044 72 33 0.9 6.1 0.00 0.00 0.00 42 1017.1
20260502212524 71 330 2.6 6.1 0.00 0.00 0.00 39 1017.2
20260502212025 70 327 0.9 5.2 0.00 0.00 0.00 45 1017.3
20260502211537 70 295 0.9 5.2 0.00 0.00 0.00 43 1017.3
20260502211024 70 292 2.6 7.8 0.00 0.00 0.00 41 1017.4
20260502210524 71 328 0.9 7.8 0.00 0.00 0.00 40 1017.4
20260502210037 71 96 3.5 7.8 0.00 0.00 0.00 43 1017.6
20260502205524 71 295 1.7 7.0 0.00 0.00 0.00 40 1017.6
20260502205024 71 315 0.9 9.6 0.00 0.00 0.00 44 1017.7
20260502204537 71 356 1.7 9.6 0.00 0.00 0.00 42 1017.8
20260502204024 70 15 3.5 7.8 0.00 0.00 0.00 40 1017.9
20260502203524 71 332 1.7 7.8 0.00 0.00 0.00 38 1018.0
20260502203055 71 37 3.5 7.8 0.00 0.00 0.00 37 1018.1
20260502202526 71 309 2.6 7.8 0.00 0.00 0.00 38 1018.1
20260502202024 71 333 0.9 7.0 0.00 0.00 0.00 39 1018.3
20260502201536 71 56 3.5 7.0 0.00 0.00 0.00 37 1018.4
20260502201026 72 302 2.6 8.7 0.00 0.00 0.00 40 1018.4
20260502200524 71 26 0.9 8.7 0.00 0.00 0.00 45 1018.4
20260502200039 71 302 3.5 9.6 0.00 0.00 0.00 42 1018.4
20260502195524 70 27 2.6 9.6 0.00 0.00 0.00 40 1018.5
20260502195024 69 321 1.7 7.8 0.00 0.00 0.00 40 1018.6
20260502194535 70 311 2.6 11.3 0.00 0.00 0.00 36 1018.5
20260502194023 71 358 4.3 11.3 0.00 0.00 0.00 37 1018.6
20260502193525 71 311 4.3 9.6 0.00 0.00 0.00 37 1018.5
20260502193035 71 48 2.6 8.7 0.00 0.00 0.00 36 1018.6
20260502192527 71 49 1.7 8.7 0.00 0.00 0.00 41 1018.5
20260502192026 70 23 3.5 10.4 0.00 0.00 0.00 43 1018.6
20260502191537 70 45 3.5 10.4 0.00 0.00 0.00 38 1018.7
20260502191028 71 42 4.3 9.6 0.00 0.00 0.00 39 1018.6
20260502190524 71 51 2.6 9.6 0.00 0.00 0.00 40 1018.8
20260502190038 71 315 1.7 9.6 0.00 0.00 0.00 37 1018.8
20260502185527 71 19 2.6 9.6 0.00 0.00 0.00 44 1018.8
20260502185024 70 339 1.7 7.8 0.00 0.00 0.00 38 1018.8
20260502184538 70 120 1.7 7.8 0.00 0.00 0.00 40 1018.9
20260502184024 70 338 2.6 8.7 0.00 0.00 0.00 40 1019.1
20260502183524 69 0 2.6 10.4 0.00 0.00 0.00 38 1019.0
20260502183039 70 327 3.5 10.4 0.00 0.00 0.00 41 1019.1
20260502182527 70 27 4.3 8.7 0.00 0.00 0.00 39 1019.1
20260502182024 70 22 0.9 7.8 0.00 0.00 0.00 37 1019.2
20260502181550 69 57 3.5 7.8 0.00 0.00 0.00 37 1019.1
20260502181024 69 344 2.6 7.8 0.00 0.00 0.00 39 1019.2
20260502180524 69 314 3.5 10.4 0.00 0.00 0.00 38 1019.2
20260502164023 67 321 1.7 7.0 0.00 0.01 0.00 43 1019.7
20260502163522 67 32 1.7 11.3 0.00 0.01 0.00 43 1019.6
20260502163038 66 72 2.6 11.3 0.00 0.01 0.00 46 1019.5
20260502162523 67 22 2.6 10.4 0.00 0.01 0.00 48 1019.6
20260502162023 66 304 3.5 10.4 0.00 0.01 0.00 44 1019.6
20260502161540 66 11 4.3 8.7 0.00 0.01 0.00 47 1019.7
20260502161022 66 24 3.5 8.7 0.00 0.01 0.00 46 1019.7
20260502160522 66 44 2.6 7.0 0.00 0.01 0.00 46 1019.8
20260502152026 64 35 1.7 7.8 0.00 0.01 0.00 52 1020.0
20260502151540 64 344 2.6 7.8 0.00 0.01 0.00 53 1019.9
20260502151022 63 50 2.6 7.8 0.00 0.01 0.00 53 1019.8
20260502150522 63 35 2.6 7.0 0.00 0.01 0.00 53 1019.6
20260502130525 57 340 0.9 3.5 0.00 0.01 0.00 75 1018.5
20260502123524 54 19 0.0 2.6 0.00 0.01 0.00 81 1018.0
20260502123035 54 0 0.0 2.6 0.00 0.01 0.00 80 1018.0
20260502122524 55 336 0.0 2.6 0.00 0.01 0.00 79 1017.9
20260502122028 55 0 0.0 1.7 0.00 0.01 0.00 78 1017.8
20260502121539 55 0 0.0 1.7 0.00 0.01 0.00 78 1017.7
20260502121029 55 22 0.0 3.5 0.00 0.01 0.00 78 1017.6
20260502120525 55 0 0.0 3.5 0.00 0.01 0.00 77 1017.5
20260502115524 55 39 0.0 3.5 0.00 0.01 0.00 75 1017.4
20260502115026 55 22 1.7 2.6 0.00 0.01 0.00 75 1017.4
20260502114539 55 358 0.0 2.6 0.00 0.01 0.00 76 1017.3
20260502114024 55 0 0.0 3.5 0.00 0.01 0.00 76 1017.3
20260502113524 55 27 0.0 3.5 0.00 0.01 0.00 76 1017.2
20260502113042 55 16 0.9 3.5 0.00 0.01 0.00 75 1017.1
20260502112523 55 21 0.0 3.5 0.00 0.01 0.00 76 1017.0
20260502112024 55 349 0.0 2.6 0.00 0.01 0.00 76 1017.0
20260502111538 55 23 0.9 1.7 0.00 0.01 0.00 75 1016.9
20260502111025 55 0 0.0 1.7 0.00 0.01 0.00 76 1016.7
20260502110525 55 34 0.0 1.7 0.00 0.01 0.00 76 1016.6
20260502110042 55 0 0.0 1.7 0.00 0.01 0.00 76 1016.6
20260502105529 54 0 0.0 1.7 0.00 0.01 0.00 76 1016.5
20260502105028 54 0 0.0 0.9 0.00 0.01 0.00 77 1016.4
20260502104539 55 0 0.0 0.9 0.00 0.01 0.00 76 1016.3
20260502104024 55 0 0.0 0.9 0.00 0.01 0.00 75 1016.3
20260502103529 55 0 0.0 0.9 0.00 0.01 0.00 76 1016.3
20260502103038 55 0 0.0 0.9 0.00 0.01 0.00 75 1016.3
20260502102522 55 0 0.0 0.9 0.00 0.01 0.00 74 1016.3
20260502102022 55 0 0.0 0.9 0.00 0.01 0.00 75 1016.2
20260502101543 55 0 0.0 1.7 0.00 0.01 0.00 74 1016.1
20260502101023 56 0 0.0 1.7 0.00 0.01 0.00 73 1016.1
20260502100523 56 32 0.0 2.6 0.00 0.01 0.00 73 1016.1
20260502091023 56 0 0.9 3.5 0.00 0.01 0.00 75 1015.6
20260502090524 56 53 0.9 3.5 0.00 0.01 0.00 74 1015.6
20260502071535 57 0 0.0 1.7 0.00 0.01 0.00 76 1015.8
20260502071024 57 0 0.0 1.7 0.00 0.01 0.00 77 1015.9
20260502070525 57 0 0.0 1.7 0.00 0.01 0.00 77 1016.2
20260502070037 57 0 0.0 1.7 0.00 0.01 0.00 77 1016.0
20260502065525 57 0 0.0 2.6 0.00 0.01 0.00 77 1015.9
20260502065027 57 35 0.0 3.5 0.00 0.01 0.00 76 1015.8
20260502064554 57 31 0.0 5.2 0.00 0.01 0.00 76 1015.5
20260502064028 57 54 0.9 5.2 0.00 0.01 0.00 76 1015.3
20260502063527 57 30 0.9 4.3 0.00 0.01 0.00 77 1015.3
20260502063039 57 0 0.9 3.5 0.00 0.01 0.00 76 1015.5
20260502062527 57 0 0.0 0.9 0.00 0.01 0.00 76 1015.9
20260502062025 57 0 0.0 0.9 0.00 0.01 0.00 77 1016.3
20260502061535 57 355 0.0 0.9 0.00 0.01 0.00 76 1016.5
20260502061024 57 0 0.0 1.7 0.00 0.01 0.00 77 1016.6
20260502060524 57 0 0.0 1.7 0.00 0.01 0.00 77 1016.8
20260502060040 57 0 0.0 1.7 0.00 0.01 0.00 77 1016.5
20260502055525 57 21 0.0 1.7 0.00 0.01 0.00 77 1016.3
20260502055025 57 19 0.0 1.7 0.00 0.01 0.00 77 1016.6
20260502054542 57 0 0.0 0.9 0.00 0.01 0.00 76 1016.5
20260502054025 57 0 0.0 1.7 0.00 0.01 0.00 76 1016.8
20260502053525 57 0 0.0 1.7 0.00 0.01 0.00 76 1016.8
20260502053041 57 0 0.0 1.7 0.00 0.01 0.00 76 1016.5
20260502052528 57 34 0.0 1.7 0.00 0.01 0.00 75 1016.4
20260502052025 58 0 0.0 1.7 0.00 0.01 0.00 75 1016.5
20260502051539 58 63 0.0 0.9 0.00 0.01 0.00 75 1016.3
20260502051024 58 0 0.0 2.6 0.00 0.01 0.00 74 1016.7
20260502050526 58 0 0.0 4.3 0.00 0.01 0.00 74 1016.9
20260502050039 58 0 0.0 4.3 0.00 0.01 0.00 73 1016.5
20260502045525 58 19 0.0 0.9 0.00 0.01 0.01 74 1016.8
20260502045025 58 0 0.0 0.9 0.00 0.01 0.01 75 1016.8
20260502044540 58 0 0.0 0.9 0.00 0.01 0.01 75 1016.6
20260502044025 58 0 0.0 1.7 0.00 0.01 0.01 75 1016.7
20260502043524 58 0 0.0 1.7 0.00 0.01 0.01 75 1016.7
20260502043038 58 0 0.0 1.7 0.00 0.01 0.01 74 1016.4
20260502042523 59 308 0.0 3.5 0.00 0.01 0.01 75 1016.2
20260502042024 59 0 0.0 6.1 0.00 0.01 0.01 75 1016.2
20260502041536 59 0 0.9 6.1 0.00 0.01 0.01 76 1015.9
20260502041024 59 359 0.9 6.1 0.00 0.01 0.01 76 1015.8
20260502040525 59 0 0.9 2.6 0.00 0.01 0.01 78 1015.7
20260502040045 59 0 0.0 1.7 0.00 0.01 0.01 79 1015.7
20260502035525 59 0 0.0 2.6 0.00 0.01 0.01 79 1015.6
20260502035025 59 0 0.0 2.6 0.00 0.01 0.01 80 1015.4
20260502034538 59 39 0.0 2.6 0.00 0.01 0.01 80 1015.4
20260502034023 59 344 0.0 3.5 0.00 0.01 0.01 82 1015.2
20260502033526 59 343 0.9 3.5 0.00 0.01 0.01 83 1015.3
20260502033037 59 0 0.0 0.9 0.00 0.01 0.01 85 1015.4
20260502032525 58 0 0.0 0.0 0.00 0.01 0.01 86 1015.5
20260502032025 58 0 0.0 0.0 0.00 0.01 0.01 86 1015.6
20260502031545 58 0 0.0 0.9 0.00 0.01 0.01 86 1015.4
20260502031024 58 0 0.0 0.9 0.00 0.01 0.01 86 1015.2
20260502030525 58 20 0.0 0.9 0.00 0.01 0.01 86 1015.2
20260502030038 58 0 0.0 0.0 0.00 0.01 0.01 87 1015.2
20260502025525 58 0 0.0 0.0 0.00 0.01 0.01 87 1015.2
20260502025022 58 0 0.0 0.9 0.00 0.01 0.01 87 1015.2
20260502024538 58 0 0.0 0.9 0.00 0.01 0.01 89 1014.9
20260502024023 57 0 0.0 0.9 0.00 0.01 0.01 90 1015.0
20260502023527 57 0 0.0 0.9 0.00 0.01 0.01 91 1015.0
20260502023039 57 0 0.0 0.9 0.00 0.01 0.01 91 1015.0
20260502022523 57 0 0.0 0.9 0.00 0.01 0.01 92 1015.0
20260502022024 56 0 0.0 0.9 0.00 0.01 0.01 92 1014.8
20260502021539 56 0 0.0 0.0 0.00 0.01 0.01 91 1014.9
20260502021022 57 0 0.0 0.0 0.00 0.01 0.01 91 1015.1
20260502020525 57 0 0.0 0.0 0.00 0.01 0.01 91 1015.2
20260502020035 57 0 0.0 0.0 0.00 0.01 0.01 91 1015.2
20260502015525 57 0 0.0 0.0 0.00 0.01 0.01 90 1015.3
20260502015026 57 0 0.0 0.0 0.00 0.01 0.01 90 1015.4
20260502014547 57 0 0.0 0.0 0.00 0.01 0.01 90 1015.3
20260502014025 57 0 0.0 0.0 0.00 0.01 0.01 88 1015.2
20260502013525 57 0 0.0 0.0 0.00 0.01 0.01 88 1015.0
20260502013037 57 0 0.0 0.0 0.00 0.01 0.01 88 1015.0
20260502012524 58 0 0.0 0.0 0.00 0.01 0.01 88 1015.3
20260502012023 58 0 0.0 0.0 0.00 0.01 0.01 89 1015.3
20260502011536 58 0 0.0 0.0 0.00 0.01 0.01 88 1015.4
20260502011024 58 0 0.0 0.0 0.00 0.01 0.01 88 1015.5
20260502010523 58 0 0.0 0.0 0.00 0.01 0.01 87 1015.4
20260502010038 58 0 0.0 0.0 0.00 0.01 0.01 87 1015.3
20260502005525 58 0 0.0 0.9 0.00 0.01 0.01 87 1015.2
20260502005026 58 0 0.0 0.9 0.00 0.01 0.01 86 1015.3
20260502004538 58 0 0.0 0.0 0.00 0.01 0.01 85 1015.3
20260502004023 58 0 0.0 0.0 0.00 0.01 0.01 85 1015.1
20260502003526 59 0 0.0 0.9 0.00 0.01 0.01 84 1015.0
20260502003037 59 0 0.0 0.9 0.00 0.01 0.01 83 1015.0
20260502002524 59 0 0.0 0.9 0.00 0.01 0.01 82 1015.0
20260502002023 59 0 0.0 0.9 0.00 0.01 0.01 81 1014.9
20260502001555 59 0 0.0 0.9 0.00 0.01 0.01 81 1014.8
20260502001025 59 0 0.0 0.9 0.00 0.01 0.01 81 1014.7
20260502000525 59 0 0.0 0.9 0.00 0.01 0.01 82 1014.6
20260502000037 59 0 0.0 0.9 0.00 0.01 0.01 81 1014.6
20260501235523 59 0 0.0 0.9 0.00 0.01 0.01 81 1014.5
20260501235025 60 0 0.0 0.9 0.00 0.01 0.01 79 1014.6
20260501234539 60 0 0.0 0.0 0.00 0.01 0.01 79 1014.6
20260501234025 60 0 0.0 0.9 0.00 0.01 0.01 76 1014.7
20260501233523 60 0 0.0 0.9 0.00 0.01 0.01 76 1014.7
20260501233040 60 0 0.0 0.9 0.00 0.01 0.01 74 1014.6
20260501232528 60 0 0.0 0.9 0.00 0.01 0.01 75 1014.6
20260501232024 60 0 0.0 1.7 0.00 0.01 0.01 75 1014.7
20260501231540 60 0 0.0 1.7 0.00 0.01 0.01 74 1014.6
20260501231023 60 58 0.0 1.7 0.00 0.01 0.01 73 1014.5
20260501230524 60 44 0.0 1.7 0.00 0.01 0.01 73 1014.4
20260501230039 60 23 0.0 1.7 0.00 0.01 0.01 73 1014.2
20260501225525 60 0 0.0 3.5 0.00 0.01 0.01 74 1013.8
20260501225024 61 0 0.9 6.1 0.00 0.01 0.01 73 1013.7
20260501224555 61 51 0.9 6.1 0.00 0.01 0.01 71 1013.3